QPF
0.07 0.10 0.06 0.04 0.02 0.02 0.02 0.02 0.03 0.03 0.04 0.05 0.05 0.01 0.01 0.02 0.02 0.01 0.02 0.02 0.03 0.04 0.04 0.04 0.04 0.03 0.03 0.04 0.05 0.04 0.05 0.06 0.08 0.08 0.06 0.04 0.05 0.05 0.04 0.04 0.04 0.02 0.02
0.03 0.03 0.02 0.02 0.01 0.01 0.01 0.01 0.02 0.03 0.03 0.05 0.04 0.01 0.01 0.02 0.02 0.02 0.02 0.02 0.02 0.03 0.04 0.04 0.03 0.03 0.03 0.03 0.04 0.05 0.04 0.04 0.05 0.07 0.07 0.06 0.05 0.03 0.03 0.03 0.03 0.02 0.02
0.03 0.02 0.01 0.01 0.01 0.01 0.00 0.01 0.02 0.04 0.02 0.04 0.03 0.02 0.02 0.03 0.03 0.03 0.03 0.03 0.03 0.04 0.03 0.03 0.04 0.03 0.03 0.03 0.03 0.04 0.05 0.05 0.05 0.06 0.07 0.07 0.05 0.04 0.03 0.03 0.03 0.03 0.02
0.02 0.01 0.01 0.01 0.01 0.01 0.01 0.02 0.05 0.05 0.03 0.04 0.03 0.03 0.03 0.03 0.03 0.05 0.05 0.05 0.04 0.03 0.03 0.03 0.04 0.04 0.03 0.03 0.02 0.03 0.04 0.05 0.05 0.05 0.05 0.06 0.05 0.05 0.04 0.03 0.03 0.03 0.02
0.01 0.01 0.01 0.01 0.01 0.01 0.02 0.04 0.04 0.03 0.03 0.03 0.04 0.04 0.04 0.04 0.05 0.06 0.06 0.05 0.04 0.04 0.03 0.03 0.03 0.04 0.03 0.03 0.02 0.03 0.03 0.03 0.03 0.04 0.05 0.05 0.04 0.04 0.04 0.04 0.03 0.03 0.02
0.00 0.00 0.01 0.01 0.01 0.02 0.04 0.04 0.03 0.03 0.03 0.04 0.05 0.07 0.07 0.07 0.07 0.07 0.07 0.07 0.06 0.05 0.04 0.04 0.03 0.03 0.03 0.03 0.02 0.03 0.03 0.03 0.03 0.04 0.05 0.05 0.04 0.04 0.03 0.03 0.03 0.02 0.02
0.00 0.00 0.00 0.01 0.02 0.03 0.03 0.03 0.03 0.03 0.04 0.06 0.07 0.07 0.09 0.09 0.08 0.08 0.08 0.08 0.07 0.07 0.05 0.03 0.03 0.03 0.03 0.03 0.03 0.04 0.04 0.03 0.04 0.04 0.05 0.05 0.05 0.05 0.04 0.04 0.03 0.02 0.02
0.00 0.00 0.00 0.00 0.01 0.01 0.01 0.01 0.02 0.03 0.05 0.06 0.08 0.09 0.09 0.09 0.08 0.07 0.07 0.07 0.07 0.06 0.05 0.05 0.04 0.04 0.04 0.03 0.04 0.04 0.05 0.04 0.04 0.04 0.06 0.06 0.06 0.06 0.05 0.04 0.04 0.03 0.02
0.00 0.00 0.00 0.01 0.01 0.00 0.00 0.01 0.01 0.01 0.03 0.07 0.07 0.07 0.07 0.08 0.08 0.07 0.06 0.06 0.06 0.05 0.04 0.04 0.04 0.04 0.04 0.04 0.04 0.04 0.04 0.04 0.04 0.05 0.05 0.05 0.05 0.06 0.06 0.05 0.04 0.04 0.03
0.00 0.00 0.00 0.01 0.01 0.01 0.01 0.01 0.01 0.02 0.02 0.03 0.04 0.04 0.05 0.05 0.06 0.05 0.05 0.04 0.04 0.03 0.03 0.03 0.04 0.05 0.04 0.04 0.04 0.03 0.03 0.04 0.04 0.05 0.06 0.06 0.06 0.06 0.07 0.06 0.05 0.04 0.04
0.00 0.00 0.00 0.00 0.01 0.01 0.01 0.02 0.02 0.02 0.02 0.02 0.03 0.04 0.04 0.04 0.04 0.04 0.03 0.03 0.04 0.03 0.03 0.03 0.04 0.05 0.04 0.03 0.02 0.02 0.02 0.03 0.03 0.04 0.05 0.05 0.07 0.07 0.06 0.06 0.05 0.05 0.04
0.00 0.00 0.00 0.00 0.01 0.01 0.01 0.02 0.02 0.03 0.04 0.04 0.03 0.03 0.04 0.03 0.02 0.02 0.03 0.04 0.04 0.04 0.04 0.03 0.04 0.05 0.03 0.02 0.02 0.02 0.03 0.03 0.03 0.03 0.05 0.05 0.06 0.07 0.07 0.05 0.05 0.04 0.04
0.00 0.00 0.01 0.01 0.01 0.01 0.02 0.03 0.03 0.03 0.03 0.03 0.02 0.02 0.02 0.02 0.02 0.03 0.03 0.03 0.03 0.03 0.03 0.04 0.05 0.05 0.04 0.04 0.04 0.04 0.04 0.03 0.04 0.04 0.04 0.06 0.06 0.06 0.05 0.05 0.04 0.04 0.03
0.00 0.01 0.01 0.01 0.01 0.02 0.03 0.03 0.03 0.03 0.02 0.01 0.01 0.01 0.02 0.02 0.03 0.03 0.03 0.03 0.03 0.03 0.04 0.04 0.04 0.03 0.03 0.03 0.04 0.04 0.05 0.04 0.04 0.04 0.03 0.03 0.03 0.03 0.03 0.03 0.03 0.04 0.04
0.01 0.01 0.01 0.02 0.02 0.03 0.03 0.03 0.02 0.02 0.01 0.01 0.01 0.01 0.01 0.01 0.02 0.02 0.03 0.03 0.03 0.03 0.03 0.04 0.04 0.04 0.04 0.04 0.04 0.04 0.04 0.04 0.03 0.03 0.03 0.03 0.02 0.02 0.02 0.02 0.02 0.03 0.04
0.02 0.02 0.02 0.02 0.02 0.03 0.03 0.02 0.01 0.01 0.01 0.01 0.00 0.01 0.01 0.01 0.02 0.02 0.02 0.03 0.03 0.03 0.03 0.03 0.03 0.03 0.02 0.02 0.02 0.03 0.03 0.03 0.03 0.03 0.03 0.03 0.02 0.02 0.02 0.02 0.02 0.03 0.03
0.02 0.03 0.03 0.03 0.02 0.02 0.02 0.01 0.01 0.00 0.00 0.00 0.00 0.00 0.01 0.01 0.01 0.01 0.02 0.02 0.03 0.03 0.03 0.03 0.03 0.02 0.02 0.03 0.03 0.03 0.04 0.04 0.05 0.05 0.05 0.04 0.03 0.02 0.02 0.02 0.04 0.03 0.02
0.02 0.02 0.02 0.02 0.02 0.02 0.01 0.01 0.00 0.00 0.00 0.00 0.01 0.01 0.00 0.01 0.01 0.02 0.02 0.03 0.03 0.04 0.04 0.04 0.04 0.04 0.03 0.03 0.03 0.04 0.05 0.06 0.07 0.06 0.06 0.04 0.03 0.03 0.02 0.03 0.04 0.03 0.03
0.02 0.02 0.02 0.01 0.01 0.01 0.00 0.00 0.00 0.00 0.00 0.00 0.01 0.00 0.01 0.01 0.01 0.01 0.03 0.03 0.03 0.03 0.03 0.03 0.04 0.03 0.03 0.03 0.03 0.04 0.06 0.06 0.06 0.06 0.04 0.03 0.02 0.03 0.04 0.03 0.03 0.03 0.03
0.01 0.02 0.02 0.01 0.01 0.00 0.00 0.00 0.00 0.00 0.00 0.00 0.01 0.01 0.01 0.01 0.01 0.01 0.02 0.02 0.02 0.02 0.02 0.02 0.03 0.03 0.02 0.02 0.03 0.04 0.05 0.04 0.05 0.05 0.04 0.04 0.03 0.03 0.04 0.04 0.04 0.03 0.02
0.01 0.01 0.01 0.01 0.00 0.00 0.00 0.00 0.00 0.00 0.00 0.00 0.01 0.01 0.01 0.01 0.01 0.01 0.02 0.02 0.01 0.02 0.02 0.03 0.03 0.04 0.04 0.04 0.04 0.04 0.05 0.06 0.06 0.05 0.05 0.04 0.04 0.03 0.03 0.05 0.05 0.05 0.04
0.01 0.01 0.00 0.00 0.00 0.00 0.00 0.00 0.01 0.00 0.00 0.00 0.00 0.01 0.01 0.01 0.01 0.02 0.02 0.02 0.01 0.02 0.03 0.03 0.03 0.04 0.03 0.03 0.02 0.02 0.03 0.05 0.05 0.06 0.06 0.06 0.06 0.06 0.06 0.06 0.08 0.07 0.07
0.00 0.00 0.00 0.00 0.00 0.00 0.00 0.00 0.00 0.00 0.00 0.00 0.00 0.01 0.00 0.01 0.01 0.02 0.02 0.01 0.01 0.01 0.01 0.02 0.03 0.03 0.03 0.02 0.02 0.02 0.04 0.06 0.06 0.05 0.05 0.05 0.05 0.07 0.08 0.10 0.11 0.10 0.09
0.00 0.00 0.00 0.00 0.00 0.00 0.00 0.00 0.00 0.00 0.00 0.00 0.01 0.01 0.00 0.00 0.01 0.02 0.02 0.02 0.02 0.01 0.02 0.02 0.02 0.03 0.03 0.03 0.02 0.02 0.02 0.03 0.04 0.05 0.04 0.04 0.04 0.05 0.06 0.08 0.09 0.09 0.08
0.00 0.00 0.00 0.01 0.01 0.01 0.01 0.01 0.00 0.00 0.01 0.01 0.00 0.00 0.00 0.00 0.00 0.01 0.02 0.02 0.02 0.02 0.02 0.03 0.02 0.01 0.02 0.03 0.02 0.02 0.02 0.01 0.02 0.02 0.03 0.03 0.03 0.04 0.06 0.07 0.09 0.09 0.08
0.01 0.01 0.01 0.01 0.01 0.01 0.01 0.01 0.01 0.00 0.00 0.00 0.00 0.00 0.00 0.00 0.00 0.01 0.01 0.02 0.03 0.03 0.03 0.02 0.02 0.02 0.02 0.02 0.01 0.01 0.01 0.01 0.03 0.03 0.03 0.04 0.05 0.05 0.06 0.06 0.07 0.07 0.07
MSLP
1009.41 1009.77 1010.20 1010.68 1011.19 1011.71 1012.22 1012.70 1013.15 1013.54 1013.88 1014.14 1014.35 1014.51 1014.63 1014.74 1014.86 1015.00 1015.15 1015.32 1015.50 1015.67 1015.81 1015.95 1016.07 1016.22 1016.39 1016.62 1016.92 1017.27 1017.67 1018.07 1018.45 1018.77 1019.00 1019.13 1019.15 1019.08 1018.95 1018.80 1018.66 1018.55 1018.50
1009.39 1009.77 1010.20 1010.67 1011.15 1011.64 1012.12 1012.58 1013.02 1013.41 1013.76 1014.04 1014.27 1014.45 1014.58 1014.69 1014.79 1014.90 1015.02 1015.17 1015.32 1015.48 1015.64 1015.80 1015.95 1016.12 1016.31 1016.54 1016.81 1017.12 1017.47 1017.83 1018.18 1018.48 1018.71 1018.86 1018.93 1018.91 1018.83 1018.72 1018.60 1018.49 1018.41
1009.42 1009.83 1010.29 1010.75 1011.20 1011.65 1012.08 1012.49 1012.89 1013.26 1013.60 1013.89 1014.12 1014.30 1014.43 1014.53 1014.60 1014.67 1014.75 1014.86 1015.00 1015.16 1015.34 1015.53 1015.74 1015.95 1016.18 1016.42 1016.68 1016.97 1017.27 1017.57 1017.87 1018.13 1018.35 1018.52 1018.62 1018.67 1018.65 1018.60 1018.53 1018.45 1018.39
1009.47 1009.93 1010.41 1010.88 1011.32 1011.72 1012.09 1012.45 1012.79 1013.12 1013.42 1013.70 1013.92 1014.09 1014.20 1014.26 1014.30 1014.32 1014.36 1014.43 1014.54 1014.70 1014.90 1015.14 1015.40 1015.67 1015.95 1016.22 1016.49 1016.75 1017.02 1017.27 1017.51 1017.74 1017.94 1018.11 1018.25 1018.36 1018.42 1018.45 1018.45 1018.44 1018.42
1009.49 1010.02 1010.55 1011.04 1011.46 1011.83 1012.15 1012.44 1012.72 1013.00 1013.25 1013.49 1013.68 1013.83 1013.91 1013.93 1013.92 1013.89 1013.87 1013.90 1013.98 1014.12 1014.34 1014.61 1014.92 1015.25 1015.58 1015.89 1016.18 1016.44 1016.68 1016.89 1017.09 1017.28 1017.47 1017.65 1017.83 1017.99 1018.14 1018.26 1018.36 1018.44 1018.49
1009.47 1010.08 1010.65 1011.17 1011.59 1011.94 1012.21 1012.45 1012.67 1012.88 1013.08 1013.27 1013.43 1013.53 1013.57 1013.56 1013.49 1013.41 1013.33 1013.30 1013.34 1013.46 1013.67 1013.96 1014.31 1014.68 1015.06 1015.41 1015.73 1016.00 1016.22 1016.42 1016.59 1016.76 1016.94 1017.14 1017.35 1017.58 1017.82 1018.04 1018.24 1018.42 1018.56
1009.40 1010.07 1010.70 1011.24 1011.67 1012.00 1012.25 1012.43 1012.59 1012.75 1012.90 1013.03 1013.14 1013.21 1013.21 1013.15 1013.04 1012.90 1012.77 1012.68 1012.67 1012.75 1012.94 1013.22 1013.57 1013.97 1014.38 1014.77 1015.11 1015.40 1015.64 1015.84 1016.01 1016.18 1016.37 1016.59 1016.84 1017.14 1017.45 1017.77 1018.08 1018.37 1018.61
1009.30 1010.00 1010.67 1011.23 1011.67 1011.99 1012.21 1012.36 1012.47 1012.57 1012.67 1012.76 1012.83 1012.85 1012.82 1012.72 1012.56 1012.38 1012.20 1012.06 1011.99 1012.02 1012.17 1012.42 1012.76 1013.16 1013.58 1013.99 1014.36 1014.68 1014.94 1015.16 1015.35 1015.54 1015.76 1016.01 1016.32 1016.67 1017.06 1017.47 1017.88 1018.27 1018.62
1009.18 1009.91 1010.58 1011.15 1011.58 1011.89 1012.09 1012.21 1012.28 1012.34 1012.39 1012.44 1012.46 1012.45 1012.39 1012.26 1012.08 1011.86 1011.64 1011.45 1011.33 1011.31 1011.40 1011.61 1011.92 1012.30 1012.71 1013.12 1013.52 1013.86 1014.16 1014.42 1014.66 1014.89 1015.14 1015.44 1015.79 1016.20 1016.66 1017.15 1017.64 1018.12 1018.56
1009.10 1009.80 1010.44 1010.99 1011.41 1011.70 1011.88 1011.97 1012.02 1012.04 1012.06 1012.06 1012.05 1012.01 1011.91 1011.77 1011.56 1011.33 1011.08 1010.87 1010.71 1010.64 1010.68 1010.84 1011.10 1011.44 1011.83 1012.25 1012.65 1013.03 1013.37 1013.68 1013.97 1014.25 1014.56 1014.90 1015.30 1015.75 1016.26 1016.80 1017.35 1017.90 1018.42
1009.07 1009.71 1010.30 1010.80 1011.18 1011.44 1011.60 1011.67 1011.69 1011.68 1011.66 1011.63 1011.58 1011.51 1011.39 1011.23 1011.02 1010.78 1010.53 1010.30 1010.12 1010.02 1010.02 1010.13 1010.35 1010.65 1011.01 1011.41 1011.83 1012.24 1012.62 1012.98 1013.33 1013.67 1014.03 1014.42 1014.85 1015.33 1015.86 1016.43 1017.02 1017.62 1018.20
1009.10 1009.65 1010.16 1010.59 1010.92 1011.15 1011.28 1011.33 1011.33 1011.29 1011.23 1011.16 1011.08 1010.97 1010.83 1010.65 1010.44 1010.20 1009.96 1009.74 1009.56 1009.45 1009.43 1009.51 1009.68 1009.95 1010.29 1010.68 1011.09 1011.52 1011.94 1012.36 1012.75 1013.15 1013.55 1013.98 1014.43 1014.93 1015.47 1016.05 1016.65 1017.26 1017.88
1009.17 1009.61 1010.03 1010.39 1010.67 1010.86 1010.96 1010.99 1010.96 1010.89 1010.79 1010.68 1010.54 1010.39 1010.22 1010.02 1009.81 1009.59 1009.37 1009.17 1009.01 1008.91 1008.89 1008.95 1009.11 1009.35 1009.66 1010.04 1010.46 1010.90 1011.35 1011.80 1012.24 1012.68 1013.12 1013.57 1014.03 1014.53 1015.06 1015.63 1016.22 1016.84 1017.46
1009.24 1009.59 1009.92 1010.20 1010.42 1010.58 1010.66 1010.67 1010.61 1010.51 1010.37 1010.20 1010.00 1009.80 1009.58 1009.36 1009.14 1008.92 1008.73 1008.56 1008.44 1008.37 1008.37 1008.44 1008.59 1008.82 1009.13 1009.49 1009.91 1010.36 1010.82 1011.30 1011.77 1012.24 1012.70 1013.16 1013.63 1014.12 1014.63 1015.17 1015.74 1016.34 1016.96
1009.27 1009.54 1009.80 1010.02 1010.20 1010.32 1010.38 1010.38 1010.30 1010.16 1009.97 1009.73 1009.47 1009.20 1008.93 1008.67 1008.43 1008.22 1008.05 1007.93 1007.85 1007.82 1007.86 1007.96 1008.12 1008.35 1008.65 1009.00 1009.41 1009.86 1010.33 1010.82 1011.31 1011.79 1012.26 1012.73 1013.19 1013.67 1014.16 1014.67 1015.22 1015.80 1016.40
1009.23 1009.44 1009.65 1009.83 1009.98 1010.09 1010.14 1010.12 1010.02 1009.84 1009.60 1009.30 1008.97 1008.62 1008.28 1007.98 1007.71 1007.51 1007.36 1007.27 1007.24 1007.26 1007.34 1007.47 1007.65 1007.89 1008.19 1008.54 1008.94 1009.38 1009.85 1010.34 1010.83 1011.32 1011.80 1012.27 1012.73 1013.19 1013.67 1014.16 1014.68 1015.24 1015.83
1009.09 1009.27 1009.44 1009.61 1009.75 1009.85 1009.90 1009.87 1009.75 1009.54 1009.25 1008.89 1008.49 1008.07 1007.67 1007.32 1007.02 1006.81 1006.67 1006.61 1006.62 1006.69 1006.82 1006.98 1007.19 1007.45 1007.75 1008.09 1008.48 1008.91 1009.37 1009.85 1010.35 1010.84 1011.32 1011.79 1012.26 1012.71 1013.18 1013.66 1014.17 1014.71 1015.29
1008.85 1009.01 1009.18 1009.33 1009.48 1009.58 1009.63 1009.60 1009.47 1009.24 1008.91 1008.50 1008.05 1007.57 1007.12 1006.72 1006.40 1006.18 1006.05 1006.01 1006.05 1006.16 1006.32 1006.52 1006.75 1007.02 1007.32 1007.66 1008.04 1008.46 1008.91 1009.39 1009.88 1010.37 1010.86 1011.34 1011.81 1012.28 1012.75 1013.23 1013.74 1014.27 1014.84
1008.52 1008.69 1008.85 1009.00 1009.15 1009.26 1009.32 1009.29 1009.16 1008.92 1008.57 1008.14 1007.65 1007.14 1006.65 1006.23 1005.89 1005.66 1005.53 1005.50 1005.57 1005.70 1005.88 1006.11 1006.36 1006.64 1006.95 1007.29 1007.66 1008.07 1008.51 1008.99 1009.47 1009.97 1010.46 1010.95 1011.44 1011.92 1012.40 1012.90 1013.42 1013.96 1014.52
1008.15 1008.31 1008.46 1008.62 1008.76 1008.88 1008.94 1008.92 1008.79 1008.56 1008.22 1007.78 1007.29 1006.78 1006.29 1005.86 1005.52 1005.28 1005.16 1005.13 1005.20 1005.35 1005.54 1005.78 1006.05 1006.33 1006.65 1006.99 1007.37 1007.77 1008.21 1008.68 1009.17 1009.66 1010.16 1010.67 1011.16 1011.66 1012.16 1012.68 1013.21 1013.76 1014.33
1007.77 1007.91 1008.04 1008.18 1008.32 1008.43 1008.49 1008.48 1008.38 1008.16 1007.85 1007.45 1006.99 1006.51 1006.04 1005.63 1005.30 1005.07 1004.94 1004.92 1004.99 1005.13 1005.32 1005.56 1005.83 1006.13 1006.45 1006.80 1007.18 1007.59 1008.03 1008.49 1008.98 1009.47 1009.97 1010.48 1010.99 1011.50 1012.01 1012.54 1013.09 1013.65 1014.24
1007.41 1007.52 1007.62 1007.73 1007.84 1007.93 1008.00 1008.00 1007.92 1007.75 1007.49 1007.15 1006.75 1006.32 1005.91 1005.53 1005.23 1005.01 1004.88 1004.85 1004.90 1005.03 1005.22 1005.45 1005.72 1006.02 1006.35 1006.71 1007.10 1007.51 1007.95 1008.41 1008.89 1009.37 1009.86 1010.36 1010.86 1011.37 1011.89 1012.43 1012.99 1013.57 1014.16
1007.12 1007.17 1007.22 1007.28 1007.36 1007.43 1007.48 1007.49 1007.45 1007.33 1007.14 1006.87 1006.56 1006.21 1005.87 1005.54 1005.27 1005.07 1004.94 1004.90 1004.93 1005.04 1005.20 1005.43 1005.69 1006.00 1006.34 1006.70 1007.10 1007.52 1007.95 1008.40 1008.85 1009.31 1009.78 1010.25 1010.73 1011.22 1011.74 1012.28 1012.84 1013.43 1014.03
1006.91 1006.89 1006.88 1006.88 1006.91 1006.94 1006.98 1007.00 1006.99 1006.92 1006.81 1006.63 1006.41 1006.15 1005.88 1005.62 1005.39 1005.20 1005.07 1005.01 1005.02 1005.10 1005.25 1005.46 1005.72 1006.02 1006.37 1006.74 1007.14 1007.55 1007.97 1008.39 1008.81 1009.23 1009.65 1010.07 1010.51 1010.97 1011.47 1011.99 1012.56 1013.15 1013.76
1006.79 1006.70 1006.62 1006.55 1006.52 1006.52 1006.53 1006.55 1006.56 1006.55 1006.50 1006.41 1006.28 1006.11 1005.91 1005.71 1005.51 1005.34 1005.21 1005.14 1005.13 1005.18 1005.31 1005.51 1005.76 1006.07 1006.42 1006.79 1007.19 1007.58 1007.97 1008.35 1008.71 1009.06 1009.41 1009.77 1010.15 1010.56 1011.02 1011.53 1012.09 1012.69 1013.31
1006.78 1006.61 1006.45 1006.32 1006.23 1006.17 1006.16 1006.17 1006.20 1006.22 1006.22 1006.20 1006.14 1006.04 1005.91 1005.75 1005.59 1005.44 1005.31 1005.23 1005.20 1005.25 1005.36 1005.55 1005.81 1006.12 1006.46 1006.83 1007.21 1007.57 1007.91 1008.22 1008.51 1008.77 1009.04 1009.31 1009.62 1009.98 1010.40 1010.88 1011.43 1012.04 1012.68
Thickness
5766 5764 5761 5759 5755 5750 5746 5743 5739 5736 5732 5729 5725 5722 5719 5717 5715 5713 5710 5707 5705 5704 5702 5703 5700 5700 5700 5698 5698 5697 5696 5697 5697 5696 5696 5700 5702 5703 5702 5703 5703 5703 5702
5762 5759 5758 5755 5752 5747 5743 5740 5737 5734 5730 5727 5722 5719 5716 5713 5711 5709 5705 5703 5701 5699 5699 5697 5696 5696 5695 5693 5692 5690 5692 5693 5693 5690 5688 5689 5693 5695 5701 5700 5698 5699 5699
5759 5756 5754 5752 5750 5745 5742 5740 5735 5731 5727 5723 5720 5716 5711 5707 5706 5703 5701 5699 5696 5694 5693 5692 5691 5690 5691 5690 5687 5687 5685 5686 5688 5687 5684 5683 5685 5690 5695 5695 5695 5694 5694
5759 5756 5752 5749 5747 5744 5742 5737 5732 5728 5724 5719 5716 5712 5707 5703 5701 5700 5698 5695 5692 5690 5688 5687 5686 5685 5686 5685 5684 5684 5683 5681 5682 5683 5682 5681 5683 5680 5683 5687 5689 5689 5688
5759 5754 5751 5748 5746 5743 5739 5734 5729 5724 5720 5716 5712 5708 5704 5702 5700 5696 5693 5690 5688 5686 5684 5683 5682 5681 5681 5681 5679 5679 5678 5678 5677 5678 5678 5677 5677 5677 5677 5677 5681 5682 5684
5757 5753 5750 5747 5743 5741 5737 5732 5725 5720 5716 5712 5709 5704 5700 5696 5694 5690 5688 5685 5684 5683 5681 5679 5678 5677 5676 5675 5674 5673 5673 5672 5672 5672 5673 5673 5673 5673 5674 5673 5673 5675 5678
5754 5750 5747 5743 5740 5736 5732 5728 5722 5716 5712 5708 5704 5700 5696 5692 5689 5687 5684 5681 5681 5679 5677 5676 5673 5673 5671 5670 5669 5668 5668 5667 5666 5665 5667 5669 5669 5670 5670 5668 5669 5669 5672
5750 5746 5744 5740 5736 5732 5727 5723 5718 5713 5709 5704 5700 5696 5692 5690 5688 5684 5681 5679 5677 5676 5674 5671 5670 5668 5667 5666 5664 5664 5663 5662 5661 5661 5661 5662 5664 5664 5664 5664 5663 5662 5665
5745 5743 5741 5737 5732 5727 5722 5718 5714 5709 5705 5701 5697 5693 5689 5686 5684 5681 5678 5675 5672 5671 5670 5668 5665 5664 5663 5662 5659 5660 5658 5658 5657 5657 5656 5656 5659 5658 5659 5660 5660 5657 5656
5741 5739 5736 5733 5728 5724 5719 5715 5710 5706 5701 5698 5694 5690 5685 5682 5679 5677 5674 5671 5668 5667 5665 5664 5662 5661 5659 5657 5656 5655 5654 5653 5652 5651 5651 5650 5652 5653 5653 5653 5654 5654 5653
5737 5734 5731 5728 5724 5719 5715 5710 5705 5701 5697 5693 5689 5685 5682 5679 5676 5673 5671 5668 5666 5663 5661 5659 5658 5656 5655 5654 5652 5651 5650 5648 5647 5646 5646 5645 5645 5646 5647 5648 5648 5648 5648
5733 5730 5726 5723 5718 5714 5709 5705 5700 5696 5693 5689 5685 5681 5678 5675 5671 5669 5667 5665 5663 5660 5658 5655 5654 5652 5651 5649 5648 5646 5645 5644 5642 5642 5641 5641 5641 5640 5640 5641 5641 5642 5642
5726 5724 5720 5716 5712 5708 5704 5700 5696 5692 5689 5685 5681 5678 5674 5671 5668 5666 5664 5661 5659 5656 5654 5652 5649 5648 5647 5646 5644 5643 5641 5640 5639 5638 5636 5636 5636 5635 5635 5634 5635 5635 5637
5719 5717 5713 5709 5706 5702 5698 5695 5691 5688 5684 5680 5676 5673 5670 5667 5664 5662 5660 5658 5655 5652 5650 5649 5647 5645 5643 5642 5641 5639 5637 5636 5635 5634 5633 5632 5631 5630 5630 5629 5628 5628 5628
5713 5710 5706 5702 5699 5695 5692 5689 5686 5683 5679 5675 5671 5669 5666 5663 5660 5657 5655 5653 5651 5649 5647 5644 5642 5641 5640 5639 5637 5635 5634 5632 5631 5630 5629 5628 5627 5625 5623 5624 5623 5622 5621
5708 5705 5701 5696 5692 5689 5686 5684 5680 5677 5674 5670 5667 5665 5662 5658 5655 5653 5651 5648 5646 5644 5642 5640 5638 5637 5636 5632 5628 5627 5628 5627 5626 5625 5624 5624 5622 5621 5618 5616 5615 5614 5615
5703 5700 5695 5691 5687 5684 5681 5678 5675 5673 5669 5665 5663 5661 5657 5654 5651 5650 5646 5643 5641 5639 5637 5635 5634 5632 5629 5625 5622 5620 5620 5621 5621 5620 5619 5620 5620 5616 5616 5613 5610 5609 5609
5698 5694 5690 5685 5682 5680 5676 5673 5670 5667 5664 5661 5658 5656 5653 5649 5647 5644 5641 5638 5636 5634 5632 5631 5629 5627 5624 5619 5616 5614 5614 5616 5616 5615 5614 5613 5613 5612 5609 5608 5608 5608 5608
5694 5689 5685 5681 5677 5673 5670 5668 5664 5662 5659 5655 5653 5651 5648 5645 5641 5638 5635 5634 5631 5630 5629 5628 5625 5623 5620 5614 5611 5608 5611 5612 5612 5611 5611 5610 5608 5605 5601 5602 5603 5603 5604
5687 5683 5679 5675 5670 5667 5665 5661 5659 5656 5653 5651 5648 5647 5643 5640 5637 5634 5631 5630 5627 5626 5625 5624 5622 5618 5616 5610 5606 5603 5607 5608 5608 5608 5608 5605 5603 5599 5596 5597 5598 5598 5599
5679 5676 5672 5668 5665 5662 5658 5655 5653 5650 5648 5646 5644 5641 5638 5635 5633 5630 5627 5625 5624 5622 5620 5618 5616 5614 5611 5607 5602 5599 5601 5604 5605 5606 5605 5604 5597 5594 5591 5590 5592 5593 5592
5672 5668 5665 5662 5659 5657 5653 5649 5647 5645 5643 5641 5638 5635 5633 5631 5630 5626 5623 5622 5620 5619 5617 5615 5613 5612 5609 5604 5600 5596 5594 5594 5597 5599 5600 5599 5592 5589 5586 5587 5587 5586 5585
5666 5662 5659 5655 5653 5651 5648 5644 5642 5640 5638 5635 5632 5630 5628 5626 5623 5621 5620 5618 5617 5616 5616 5614 5611 5609 5607 5602 5596 5592 5589 5588 5590 5593 5591 5588 5585 5583 5584 5582 5582 5582 5584
5659 5656 5653 5650 5647 5645 5643 5640 5637 5635 5632 5629 5627 5625 5623 5621 5619 5617 5617 5616 5613 5612 5610 5609 5607 5605 5602 5599 5595 5591 5589 5585 5585 5586 5585 5581 5580 5580 5580 5580 5580 5581 5582
5653 5651 5647 5644 5641 5639 5637 5635 5633 5630 5626 5624 5622 5620 5620 5618 5614 5614 5611 5610 5607 5604 5600 5601 5600 5598 5596 5590 5582 5581 5584 5583 5582 5579 5581 5583 5584 5583 5582 5582 5581 5580 5580
5646 5644 5641 5639 5636 5634 5632 5630 5627 5624 5621 5619 5617 5617 5616 5614 5612 5610 5609 5604 5600 5596 5592 5589 5588 5589 5585 5581 5578 5575 5573 5572 5570 5572 5578 5581 5581 5581 5580 5580 5580 5579 5578